Location: Elmsmere
(40.9284°N, 73.8207°W)
Time: 05:34:58
(UTC+00:00)

CZ-2C R/B - Pass Details

Date: 29 October 2020
Orbit: 703 x 909 km, 98.1° (Epoch: 27 November)

Event Time Altitude Azimuth Distance (km) Brightness Sun altitude
Rises 22:37:49 0° 134° (SE) 3,522 6.1 -8.8°
Reaches altitude 10° 22:40:32 10° 124° (SE) 2,575 5.3 -9.3°
Maximum altitude 22:45:22 29° 67° (ENE) 1,583 4.1 -10.2°
Drops below altitude 10° 22:50:06 10° 10° (N) 2,514 5.5 -11.1°
Sets 22:52:43 0° 359° (N) 3,425 6.3 -11.6°
